User: anonymous   Login
Location: Curupao
(10.4996°N, 66.6442°W)
Time: 05:13:11
(UTC+00:00)
Language:

IRS-1D - Orbit

View from above orbital plane
View from above orbital plane
View from above satellite
View from above satellite

Ground track
Ground track

The orbit data is extracted from the following two-line orbital elements,

1 24971U 97057A   24204.43348540  .00000644  00000-0  23896-3 0  9999
2 24971  98.7644 173.4214 0053746 113.5541 247.1302 14.34801787402952
Epoch (UTC): 22 July 2024 10:24:13
Eccentricity: 0.0053746
inclination: 98.7644°
perigee height: 737 km
apogee height: 814 km
right ascension of ascending node: 173.4214°
argument of perigee: 113.5541°
revolutions per day: 14.34801787
mean anomaly at epoch: 247.1302°
orbit number at epoch: 40295

The dashed part of the orbit path shows where the satellite is in the earth's shadow,  

DLR